| time (UTC) | temp F | wind direction | speed MPH | gust MPH | rain 1hr in | rain 24hr in | rain mn in | humidity % | barometer mb |
| 20260505225503 | 70 | 267 | 4.0 | 8.0 | 0.00 | 0.00 | 0.00 | 53 | 1008.0 |
| 20260505225003 | 70 | 252 | 3.0 | 8.0 | 0.00 | 0.00 | 0.00 | 52 | 1008.0 |
| 20260505224510 | 71 | 254 | 3.0 | 17.0 | 0.00 | 0.00 | 0.00 | 52 | 1008.2 |
| 20260505224005 | 71 | 250 | 8.0 | 17.0 | 0.00 | 0.00 | 0.00 | 52 | 1008.3 |
| 20260505223505 | 71 | 277 | 7.0 | 17.0 | 0.00 | 0.00 | 0.00 | 51 | 1008.3 |
| 20260505223009 | 72 | 267 | 3.0 | 8.0 | 0.00 | 0.00 | 0.00 | 48 | 1008.3 |
| 20260505222505 | 72 | 253 | 1.0 | 8.0 | 0.00 | 0.00 | 0.00 | 47 | 1008.0 |
| 20260505222007 | 72 | 267 | 2.0 | 13.0 | 0.00 | 0.00 | 0.00 | 46 | 1008.0 |
| 20260505221508 | 73 | 203 | 3.0 | 13.0 | 0.00 | 0.00 | 0.00 | 46 | 1008.2 |
| 20260505221004 | 73 | 253 | 4.0 | 12.0 | 0.00 | 0.00 | 0.00 | 45 | 1008.0 |
| 20260505220503 | 73 | 248 | 5.0 | 14.0 | 0.00 | 0.00 | 0.00 | 45 | 1008.1 |
| 20260505220011 | 73 | 234 | 6.0 | 16.0 | 0.00 | 0.00 | 0.00 | 45 | 1008.0 |
| 20260505215507 | 73 | 254 | 6.0 | 16.0 | 0.00 | 0.00 | 0.00 | 45 | 1008.0 |
| 20260505215006 | 73 | 223 | 7.0 | 13.0 | 0.00 | 0.00 | 0.00 | 44 | 1007.9 |
| 20260505214510 | 73 | 247 | 4.0 | 9.0 | 0.00 | 0.00 | 0.00 | 46 | 1007.8 |
| 20260505214006 | 73 | 208 | 2.0 | 10.0 | 0.00 | 0.00 | 0.00 | 46 | 1007.7 |
| 20260505213506 | 73 | 231 | 4.0 | 10.0 | 0.00 | 0.00 | 0.00 | 45 | 1007.5 |
| 20260505213019 | 73 | 235 | 3.0 | 10.0 | 0.00 | 0.00 | 0.00 | 46 | 1007.4 |
| 20260505212508 | 73 | 188 | 3.0 | 9.0 | 0.00 | 0.00 | 0.00 | 46 | 1007.3 |
| 20260505212005 | 73 | 281 | 3.0 | 9.0 | 0.00 | 0.00 | 0.00 | 46 | 1007.2 |
| 20260505211512 | 73 | 229 | 3.0 | 10.0 | 0.00 | 0.00 | 0.00 | 46 | 1007.1 |
| 20260505211005 | 72 | 240 | 4.0 | 11.0 | 0.00 | 0.00 | 0.00 | 46 | 1007.2 |
| 20260505210503 | 72 | 249 | 4.0 | 11.0 | 0.00 | 0.00 | 0.00 | 46 | 1007.3 |
| 20260505210008 | 72 | 282 | 3.0 | 9.0 | 0.00 | 0.00 | 0.00 | 47 | 1007.3 |
| 20260505205508 | 72 | 252 | 4.0 | 10.0 | 0.00 | 0.00 | 0.00 | 47 | 1007.3 |
| 20260505205007 | 72 | 290 | 5.0 | 13.0 | 0.00 | 0.00 | 0.00 | 49 | 1007.4 |
| 20260505204513 | 72 | 237 | 5.0 | 13.0 | 0.00 | 0.00 | 0.00 | 47 | 1007.5 |
| 20260505204010 | 72 | 286 | 6.0 | 20.0 | 0.00 | 0.00 | 0.00 | 48 | 1007.5 |
| 20260505203505 | 73 | 238 | 10.0 | 19.0 | 0.00 | 0.00 | 0.00 | 44 | 1007.5 |
| 20260505203026 | 75 | 252 | 8.0 | 18.0 | 0.00 | 0.00 | 0.00 | 39 | 1007.4 |
| 20260505202505 | 75 | 207 | 9.0 | 17.0 | 0.00 | 0.00 | 0.00 | 39 | 1007.2 |
| 20260505202008 | 75 | 198 | 6.0 | 15.0 | 0.00 | 0.00 | 0.00 | 39 | 1007.0 |
| 20260505201518 | 75 | 217 | 5.0 | 18.0 | 0.00 | 0.00 | 0.00 | 38 | 1007.0 |
| 20260505201005 | 76 | 202 | 9.0 | 18.0 | 0.00 | 0.00 | 0.00 | 38 | 1007.1 |
| 20260505200505 | 76 | 239 | 7.0 | 16.0 | 0.00 | 0.00 | 0.00 | 37 | 1006.9 |
| 20260505200014 | 76 | 194 | 10.0 | 15.0 | 0.00 | 0.00 | 0.00 | 38 | 1006.9 |
| 20260505195507 | 76 | 222 | 5.0 | 15.0 | 0.00 | 0.00 | 0.00 | 38 | 1007.0 |
| 20260505195006 | 76 | 252 | 6.0 | 15.0 | 0.00 | 0.00 | 0.00 | 37 | 1007.1 |
| 20260505194512 | 76 | 277 | 8.0 | 16.0 | 0.00 | 0.00 | 0.00 | 38 | 1007.1 |
| 20260505194007 | 76 | 180 | 6.0 | 20.0 | 0.00 | 0.00 | 0.00 | 36 | 1007.1 |
| 20260505193506 | 76 | 252 | 8.0 | 20.0 | 0.00 | 0.00 | 0.00 | 34 | 1006.9 |
| 20260505193018 | 76 | 216 | 9.0 | 20.0 | 0.00 | 0.00 | 0.00 | 35 | 1007.0 |
| 20260505192506 | 77 | 207 | 9.0 | 20.0 | 0.00 | 0.00 | 0.00 | 34 | 1006.9 |
| 20260505192012 | 77 | 232 | 9.0 | 20.0 | 0.00 | 0.00 | 0.00 | 35 | 1007.1 |
| 20260505191515 | 77 | 252 | 11.0 | 20.0 | 0.00 | 0.00 | 0.00 | 34 | 1006.9 |
| 20260505191009 | 77 | 226 | 10.0 | 17.0 | 0.00 | 0.00 | 0.00 | 36 | 1006.8 |
| 20260505190512 | 77 | 205 | 9.0 | 18.0 | 0.00 | 0.00 | 0.00 | 36 | 1007.0 |
| 20260505190026 | 77 | 209 | 10.0 | 18.0 | 0.00 | 0.00 | 0.00 | 36 | 1006.9 |
| 20260505185507 | 77 | 227 | 5.0 | 16.0 | 0.00 | 0.00 | 0.00 | 37 | 1006.8 |
| 20260505185005 | 77 | 168 | 7.0 | 16.0 | 0.00 | 0.00 | 0.00 | 39 | 1006.8 |
| 20260505184518 | 77 | 283 | 6.0 | 23.0 | 0.00 | 0.00 | 0.00 | 38 | 1006.8 |
| 20260505184006 | 77 | 235 | 6.0 | 23.0 | 0.00 | 0.00 | 0.00 | 38 | 1006.8 |
| 20260505183505 | 77 | 192 | 9.0 | 20.0 | 0.00 | 0.00 | 0.00 | 38 | 1006.9 |
| 20260505183016 | 77 | 255 | 9.0 | 20.0 | 0.00 | 0.00 | 0.00 | 37 | 1007.1 |
| 20260505182506 | 76 | 260 | 4.0 | 21.0 | 0.00 | 0.00 | 0.00 | 40 | 1007.2 |
| 20260505182012 | 76 | 195 | 10.0 | 21.0 | 0.00 | 0.00 | 0.00 | 37 | 1007.4 |
| 20260505181519 | 76 | 161 | 9.0 | 23.0 | 0.00 | 0.00 | 0.00 | 38 | 1007.3 |
| 20260505181007 | 77 | 195 | 12.0 | 23.0 | 0.00 | 0.00 | 0.00 | 38 | 1007.5 |
| 20260505180512 | 77 | 257 | 10.0 | 20.0 | 0.00 | 0.00 | 0.00 | 39 | 1007.7 |
| 20260505180021 | 76 | 210 | 9.0 | 20.0 | 0.00 | 0.00 | 0.00 | 40 | 1007.7 |
| 20260505175509 | 76 | 179 | 7.0 | 13.0 | 0.00 | 0.00 | 0.00 | 41 | 1007.6 |
| 20260505175014 | 76 | 223 | 5.0 | 12.0 | 0.00 | 0.00 | 0.00 | 42 | 1007.7 |
| 20260505174519 | 76 | 217 | 5.0 | 13.0 | 0.00 | 0.00 | 0.00 | 42 | 1007.7 |
| 20260505174012 | 76 | 221 | 6.0 | 13.0 | 0.00 | 0.00 | 0.00 | 42 | 1007.8 |
| 20260505173507 | 76 | 234 | 5.0 | 21.0 | 0.00 | 0.00 | 0.00 | 42 | 1007.7 |
| 20260505173034 | 75 | 254 | 6.0 | 21.0 | 0.00 | 0.00 | 0.00 | 42 | 1008.0 |
| 20260505172506 | 75 | 208 | 9.0 | 14.0 | 0.00 | 0.00 | 0.00 | 42 | 1008.2 |
| 20260505172008 | 75 | 215 | 7.0 | 22.0 | 0.00 | 0.00 | 0.00 | 43 | 1008.1 |
| 20260505171521 | 75 | 243 | 10.0 | 22.0 | 0.00 | 0.00 | 0.00 | 44 | 1008.1 |
| 20260505171003 | 75 | 221 | 9.0 | 20.0 | 0.00 | 0.00 | 0.00 | 44 | 1008.1 |
| 20260505170504 | 75 | 259 | 8.0 | 22.0 | 0.00 | 0.00 | 0.00 | 44 | 1008.2 |
| 20260505170005 | 75 | 239 | 5.0 | 22.0 | 0.00 | 0.00 | 0.00 | 45 | 1008.2 |
| 20260505165504 | 74 | 219 | 6.0 | 19.0 | 0.00 | 0.00 | 0.00 | 45 | 1008.2 |
| 20260505165003 | 74 | 179 | 10.0 | 21.0 | 0.00 | 0.00 | 0.00 | 43 | 1008.3 |
| 20260505164504 | 75 | 184 | 11.0 | 21.0 | 0.00 | 0.00 | 0.00 | 42 | 1008.1 |
| 20260505164002 | 75 | 184 | 7.0 | 12.0 | 0.00 | 0.00 | 0.00 | 46 | 1008.0 |
| 20260505163508 | 75 | 206 | 7.0 | 13.0 | 0.00 | 0.00 | 0.00 | 45 | 1008.0 |
| 20260505163010 | 75 | 232 | 7.0 | 18.0 | 0.00 | 0.00 | 0.00 | 47 | 1008.1 |
| 20260505162503 | 74 | 232 | 9.0 | 18.0 | 0.00 | 0.00 | 0.00 | 46 | 1008.2 |
| 20260505162008 | 74 | 243 | 9.0 | 18.0 | 0.00 | 0.00 | 0.00 | 47 | 1008.4 |
| 20260505161515 | 74 | 271 | 5.0 | 11.0 | 0.00 | 0.00 | 0.00 | 49 | 1008.5 |
| 20260505161007 | 73 | 257 | 5.0 | 17.0 | 0.00 | 0.00 | 0.00 | 48 | 1008.8 |
| 20260505160510 | 73 | 191 | 6.0 | 21.0 | 0.00 | 0.00 | 0.00 | 47 | 1008.8 |
| 20260505153010 | 74 | 196 | 12.0 | 19.0 | 0.00 | 0.00 | 0.00 | 46 | 1008.9 |
| 20260505152504 | 73 | 180 | 9.0 | 18.0 | 0.00 | 0.00 | 0.00 | 47 | 1009.0 |
| 20260505152006 | 73 | 183 | 9.0 | 18.0 | 0.00 | 0.00 | 0.00 | 48 | 1009.0 |
| 20260505151513 | 74 | 168 | 9.0 | 18.0 | 0.00 | 0.00 | 0.00 | 46 | 1009.0 |
| 20260505151007 | 74 | 179 | 8.0 | 18.0 | 0.00 | 0.00 | 0.00 | 48 | 1009.0 |
| 20260505150507 | 73 | 221 | 9.0 | 16.0 | 0.00 | 0.00 | 0.00 | 48 | 1009.0 |
| 20260505140508 | 69 | 180 | 3.0 | 12.0 | 0.00 | 0.00 | 0.00 | 56 | 1009.0 |
| 20260505125011 | 62 | 78 | 0.0 | 2.0 | 0.00 | 0.00 | 0.00 | 72 | 1009.4 |
| 20260505124522 | 60 | 78 | 0.0 | 2.0 | 0.00 | 0.00 | 0.00 | 74 | 1009.4 |
| 20260505124009 | 60 | 78 | 0.0 | 4.0 | 0.00 | 0.00 | 0.00 | 75 | 1009.5 |
| 20260505123509 | 60 | 78 | 0.0 | 6.0 | 0.00 | 0.00 | 0.00 | 73 | 1009.6 |
| 20260505123025 | 59 | 76 | 2.0 | 6.0 | 0.00 | 0.00 | 0.00 | 74 | 1009.6 |
| 20260505122509 | 59 | 91 | 2.0 | 4.0 | 0.00 | 0.00 | 0.00 | 75 | 1009.7 |
| 20260505122004 | 59 | 117 | 1.0 | 3.0 | 0.00 | 0.00 | 0.00 | 74 | 1009.8 |
| 20260505121507 | 59 | 82 | 2.0 | 3.0 | 0.00 | 0.00 | 0.00 | 75 | 1009.8 |
| 20260505121004 | 59 | 86 | 2.0 | 3.0 | 0.00 | 0.00 | 0.00 | 75 | 1009.8 |
| 20260505120505 | 59 | 92 | 0.0 | 2.0 | 0.00 | 0.00 | 0.00 | 76 | 1009.9 |
| 20260505120042 | 59 | 142 | 0.0 | 2.0 | 0.00 | 0.00 | 0.00 | 76 | 1009.9 |
| 20260505115504 | 59 | 142 | 0.0 | 2.0 | 0.00 | 0.00 | 0.00 | 75 | 1009.8 |
| 20260505115006 | 58 | 142 | 0.0 | 2.0 | 0.00 | 0.00 | 0.00 | 78 | 1009.8 |
| 20260505114518 | 58 | 142 | 0.0 | 2.0 | 0.00 | 0.00 | 0.00 | 78 | 1009.6 |
| 20260505114006 | 58 | 98 | 0.0 | 2.0 | 0.00 | 0.00 | 0.00 | 78 | 1009.6 |
| 20260505113508 | 58 | 98 | 0.0 | 2.0 | 0.00 | 0.00 | 0.00 | 79 | 1009.5 |
| 20260505113021 | 58 | 98 | 0.0 | 2.0 | 0.00 | 0.00 | 0.00 | 79 | 1009.4 |
| 20260505112508 | 57 | 98 | 0.0 | 2.0 | 0.00 | 0.00 | 0.00 | 77 | 1009.4 |
| 20260505112008 | 57 | 99 | 1.0 | 2.0 | 0.00 | 0.00 | 0.00 | 76 | 1009.3 |
| 20260505111528 | 57 | 99 | 0.0 | 2.0 | 0.00 | 0.00 | 0.00 | 76 | 1009.2 |
| 20260505111010 | 57 | 99 | 0.0 | 2.0 | 0.00 | 0.00 | 0.00 | 75 | 1009.3 |
| 20260505110507 | 57 | 79 | 0.0 | 2.0 | 0.00 | 0.00 | 0.00 | 74 | 1009.3 |
| 20260505102015 | 56 | 241 | 1.0 | 5.0 | 0.00 | 0.00 | 0.00 | 75 | 1009.0 |
| 20260505101526 | 55 | 182 | 0.0 | 5.0 | 0.00 | 0.00 | 0.00 | 77 | 1009.0 |
| 20260505101010 | 56 | 136 | 2.0 | 3.0 | 0.00 | 0.00 | 0.00 | 75 | 1009.0 |
| 20260505100510 | 55 | 74 | 0.0 | 3.0 | 0.00 | 0.00 | 0.00 | 73 | 1009.0 |
| 20260505100028 | 55 | 254 | 2.0 | 4.0 | 0.00 | 0.00 | 0.00 | 73 | 1009.2 |
| 20260505095508 | 56 | 78 | 0.0 | 4.0 | 0.00 | 0.00 | 0.00 | 71 | 1009.0 |
| 20260505095008 | 56 | 191 | 1.0 | 2.0 | 0.00 | 0.00 | 0.00 | 70 | 1009.0 |
| 20260505094513 | 56 | 172 | 0.0 | 2.0 | 0.00 | 0.00 | 0.00 | 70 | 1009.0 |
| 20260505094006 | 56 | 172 | 0.0 | 6.0 | 0.00 | 0.00 | 0.00 | 70 | 1008.9 |
| 20260505093505 | 57 | 172 | 1.0 | 6.0 | 0.00 | 0.00 | 0.00 | 70 | 1008.7 |
| 20260505093018 | 57 | 96 | 2.0 | 4.0 | 0.00 | 0.00 | 0.00 | 69 | 1008.6 |
| 20260505092507 | 57 | 109 | 1.0 | 6.0 | 0.00 | 0.00 | 0.00 | 69 | 1008.5 |
| 20260505092009 | 57 | 117 | 2.0 | 6.0 | 0.00 | 0.00 | 0.00 | 68 | 1008.6 |
| 20260505091528 | 57 | 105 | 2.0 | 4.0 | 0.00 | 0.00 | 0.00 | 68 | 1008.5 |
| 20260505091009 | 57 | 114 | 1.0 | 3.0 | 0.00 | 0.00 | 0.00 | 68 | 1008.5 |
| 20260505090508 | 57 | 122 | 2.0 | 4.0 | 0.00 | 0.00 | 0.00 | 68 | 1008.5 |
| 20260505090039 | 57 | 127 | 2.0 | 4.0 | 0.00 | 0.00 | 0.00 | 69 | 1008.4 |
| 20260505085515 | 57 | 91 | 1.0 | 4.0 | 0.00 | 0.00 | 0.00 | 69 | 1008.5 |
| 20260505085008 | 57 | 160 | 2.0 | 4.0 | 0.00 | 0.00 | 0.00 | 69 | 1008.6 |
| 20260505084529 | 56 | 123 | 2.0 | 3.0 | 0.00 | 0.00 | 0.00 | 69 | 1008.5 |
| 20260505084007 | 57 | 97 | 1.0 | 4.0 | 0.00 | 0.00 | 0.00 | 69 | 1008.5 |
| 20260505083507 | 57 | 155 | 2.0 | 6.0 | 0.00 | 0.00 | 0.00 | 68 | 1008.5 |
| 20260505083018 | 57 | 119 | 1.0 | 6.0 | 0.00 | 0.00 | 0.00 | 68 | 1008.5 |
| 20260505082507 | 57 | 132 | 2.0 | 4.0 | 0.00 | 0.00 | 0.00 | 69 | 1008.6 |
| 20260505082008 | 57 | 122 | 2.0 | 6.0 | 0.00 | 0.00 | 0.00 | 68 | 1008.5 |
| 20260505081510 | 57 | 94 | 2.0 | 7.0 | 0.00 | 0.00 | 0.00 | 68 | 1008.5 |
| 20260505081004 | 57 | 90 | 2.0 | 7.0 | 0.00 | 0.00 | 0.00 | 68 | 1008.5 |
| 20260505080504 | 57 | 109 | 2.0 | 4.0 | 0.00 | 0.00 | 0.00 | 68 | 1008.5 |
| 20260505080003 | 57 | 123 | 2.0 | 4.0 | 0.00 | 0.00 | 0.00 | 68 | 1008.5 |
| 20260505075502 | 57 | 112 | 2.0 | 4.0 | 0.00 | 0.00 | 0.00 | 67 | 1008.4 |
| 20260505075003 | 57 | 133 | 1.0 | 4.0 | 0.00 | 0.00 | 0.00 | 68 | 1008.4 |
| 20260505074507 | 57 | 123 | 2.0 | 6.0 | 0.00 | 0.00 | 0.00 | 67 | 1008.3 |
| 20260505074005 | 57 | 126 | 2.0 | 6.0 | 0.00 | 0.00 | 0.00 | 69 | 1008.3 |
| 20260505073506 | 57 | 109 | 3.0 | 5.0 | 0.00 | 0.00 | 0.00 | 70 | 1008.2 |
| 20260505073027 | 56 | 117 | 2.0 | 5.0 | 0.00 | 0.00 | 0.00 | 69 | 1008.3 |
| 20260505072511 | 56 | 88 | 2.0 | 4.0 | 0.00 | 0.00 | 0.00 | 72 | 1008.2 |
| 20260505072007 | 57 | 146 | 1.0 | 3.0 | 0.00 | 0.00 | 0.00 | 72 | 1008.2 |
| 20260505071520 | 57 | 86 | 0.0 | 2.0 | 0.00 | 0.00 | 0.00 | 73 | 1008.2 |
| 20260505071003 | 57 | 86 | 0.0 | 2.0 | 0.00 | 0.00 | 0.00 | 72 | 1008.2 |
| 20260505070505 | 58 | 86 | 1.0 | 4.0 | 0.00 | 0.00 | 0.00 | 72 | 1008.2 |
| 20260505070006 | 58 | 78 | 1.0 | 6.0 | 0.00 | 0.00 | 0.00 | 70 | 1008.2 |
| 20260505065503 | 58 | 78 | 2.0 | 6.0 | 0.00 | 0.00 | 0.00 | 69 | 1008.1 |
| 20260505065003 | 59 | 107 | 2.0 | 3.0 | 0.00 | 0.00 | 0.00 | 63 | 1008.2 |
| 20260505064518 | 59 | 109 | 1.0 | 3.0 | 0.00 | 0.00 | 0.00 | 62 | 1008.3 |
| 20260505064005 | 59 | 78 | 1.0 | 2.0 | 0.00 | 0.00 | 0.00 | 61 | 1008.5 |
| 20260505063505 | 59 | 78 | 0.0 | 3.0 | 0.00 | 0.00 | 0.00 | 60 | 1008.5 |
| 20260505063012 | 60 | 78 | 0.0 | 4.0 | 0.00 | 0.00 | 0.00 | 60 | 1008.5 |
| 20260505062505 | 60 | 97 | 2.0 | 4.0 | 0.00 | 0.00 | 0.00 | 60 | 1008.5 |
| 20260505062006 | 60 | 94 | 2.0 | 4.0 | 0.00 | 0.00 | 0.00 | 59 | 1008.5 |
| 20260505061530 | 60 | 106 | 0.0 | 4.0 | 0.00 | 0.00 | 0.00 | 59 | 1008.3 |
| 20260505061007 | 61 | 114 | 2.0 | 3.0 | 0.00 | 0.00 | 0.00 | 58 | 1008.4 |
| 20260505060508 | 61 | 90 | 1.0 | 3.0 | 0.00 | 0.00 | 0.00 | 57 | 1008.5 |
| 20260505060022 | 62 | 108 | 1.0 | 4.0 | 0.00 | 0.00 | 0.00 | 55 | 1008.5 |
| 20260505055503 | 63 | 100 | 2.0 | 4.0 | 0.00 | 0.00 | 0.00 | 55 | 1008.6 |
| 20260505055003 | 63 | 115 | 2.0 | 3.0 | 0.00 | 0.00 | 0.00 | 55 | 1008.6 |
| 20260505054505 | 63 | 113 | 1.0 | 3.0 | 0.00 | 0.00 | 0.00 | 54 | 1008.6 |
| 20260505054012 | 63 | 110 | 2.0 | 3.0 | 0.00 | 0.00 | 0.00 | 54 | 1008.7 |
| 20260505053504 | 63 | 111 | 1.0 | 3.0 | 0.00 | 0.00 | 0.00 | 54 | 1008.7 |
| 20260505053010 | 63 | 147 | 1.0 | 3.0 | 0.00 | 0.00 | 0.00 | 54 | 1008.7 |
| 20260505052503 | 64 | 134 | 1.0 | 3.0 | 0.00 | 0.00 | 0.00 | 54 | 1008.8 |
| 20260505052011 | 64 | 132 | 2.0 | 3.0 | 0.00 | 0.00 | 0.00 | 53 | 1008.8 |
| 20260505051517 | 64 | 130 | 1.0 | 4.0 | 0.00 | 0.00 | 0.00 | 52 | 1008.8 |
| 20260505051009 | 64 | 184 | 1.0 | 4.0 | 0.00 | 0.00 | 0.00 | 52 | 1008.8 |
| 20260505050506 | 64 | 144 | 0.0 | 4.0 | 0.00 | 0.00 | 0.00 | 52 | 1008.8 |
| 20260505041514 | 64 | 142 | 2.0 | 6.0 | 0.00 | 0.00 | 0.00 | 49 | 1008.6 |
| 20260505041006 | 64 | 167 | 2.0 | 4.0 | 0.00 | 0.00 | 0.00 | 49 | 1008.6 |
| 20260505040506 | 65 | 148 | 0.0 | 5.0 | 0.00 | 0.00 | 0.00 | 49 | 1008.7 |
| 20260505040018 | 65 | 126 | 3.0 | 5.0 | 0.00 | 0.00 | 0.00 | 48 | 1008.6 |
| 20260505035507 | 65 | 168 | 2.0 | 5.0 | 0.00 | 0.00 | 0.00 | 48 | 1008.5 |
| 20260505035007 | 65 | 133 | 3.0 | 5.0 | 0.00 | 0.00 | 0.00 | 48 | 1008.5 |
| 20260505034526 | 65 | 140 | 2.0 | 5.0 | 0.00 | 0.00 | 0.00 | 48 | 1008.4 |
| 20260505034011 | 65 | 160 | 2.0 | 6.0 | 0.00 | 0.00 | 0.00 | 47 | 1008.4 |
| 20260505033510 | 65 | 205 | 2.0 | 6.0 | 0.00 | 0.00 | 0.00 | 47 | 1008.3 |
| 20260505033006 | 66 | 159 | 2.0 | 6.0 | 0.00 | 0.00 | 0.00 | 47 | 1008.3 |
| 20260505032503 | 66 | 171 | 2.0 | 5.0 | 0.00 | 0.00 | 0.00 | 47 | 1008.3 |
| 20260505032005 | 66 | 147 | 2.0 | 6.0 | 0.00 | 0.00 | 0.00 | 46 | 1008.3 |
| 20260505031530 | 66 | 169 | 4.0 | 6.0 | 0.00 | 0.00 | 0.00 | 47 | 1008.2 |
| 20260505031007 | 66 | 142 | 2.0 | 6.0 | 0.00 | 0.00 | 0.00 | 47 | 1008.2 |
| 20260505030508 | 66 | 176 | 2.0 | 6.0 | 0.00 | 0.00 | 0.00 | 46 | 1008.4 |
| 20260505030018 | 66 | 161 | 2.0 | 7.0 | 0.00 | 0.00 | 0.00 | 46 | 1008.4 |
| 20260505025507 | 66 | 158 | 2.0 | 7.0 | 0.00 | 0.00 | 0.00 | 46 | 1008.2 |
| 20260505025009 | 66 | 116 | 3.0 | 7.0 | 0.00 | 0.00 | 0.00 | 47 | 1008.2 |
| 20260505024533 | 66 | 138 | 2.0 | 7.0 | 0.00 | 0.00 | 0.00 | 47 | 1008.2 |
| 20260505024007 | 66 | 173 | 3.0 | 7.0 | 0.00 | 0.00 | 0.00 | 46 | 1008.3 |
| 20260505023508 | 66 | 153 | 1.0 | 6.0 | 0.00 | 0.00 | 0.00 | 46 | 1008.4 |
| 20260505023028 | 66 | 166 | 3.0 | 6.0 | 0.00 | 0.00 | 0.00 | 46 | 1008.3 |
| 20260505022508 | 66 | 117 | 2.0 | 5.0 | 0.00 | 0.00 | 0.00 | 45 | 1008.3 |
| 20260505022012 | 67 | 167 | 2.0 | 5.0 | 0.00 | 0.00 | 0.00 | 46 | 1008.3 |
| 20260505021513 | 67 | 178 | 2.0 | 4.0 | 0.00 | 0.00 | 0.00 | 45 | 1008.4 |
| 20260505021011 | 67 | 128 | 2.0 | 5.0 | 0.00 | 0.00 | 0.00 | 45 | 1008.5 |
| 20260505020506 | 67 | 146 | 2.0 | 5.0 | 0.00 | 0.00 | 0.00 | 45 | 1008.5 |
| 20260505020027 | 67 | 182 | 2.0 | 5.0 | 0.00 | 0.00 | 0.00 | 45 | 1008.5 |
| 20260505015513 | 67 | 148 | 2.0 | 8.0 | 0.00 | 0.00 | 0.00 | 45 | 1008.5 |
| 20260505015010 | 67 | 202 | 3.0 | 8.0 | 0.00 | 0.00 | 0.00 | 45 | 1008.5 |
| 20260505014527 | 67 | 168 | 1.0 | 7.0 | 0.00 | 0.00 | 0.00 | 44 | 1008.5 |
| 20260505014008 | 67 | 151 | 1.0 | 7.0 | 0.00 | 0.00 | 0.00 | 44 | 1008.3 |
| 20260505013509 | 67 | 224 | 4.0 | 8.0 | 0.00 | 0.00 | 0.00 | 44 | 1008.2 |
| 20260505013025 | 67 | 214 | 4.0 | 8.0 | 0.00 | 0.00 | 0.00 | 44 | 1008.2 |
| 20260505012509 | 68 | 166 | 3.0 | 10.0 | 0.00 | 0.00 | 0.00 | 43 | 1008.2 |
| 20260505012009 | 68 | 206 | 5.0 | 10.0 | 0.00 | 0.00 | 0.00 | 43 | 1008.1 |
| 20260505011533 | 68 | 168 | 4.0 | 10.0 | 0.00 | 0.00 | 0.00 | 44 | 1008.0 |
| 20260505011009 | 68 | 183 | 5.0 | 10.0 | 0.00 | 0.00 | 0.00 | 43 | 1008.0 |
| 20260505010503 | 68 | 191 | 2.0 | 14.0 | 0.00 | 0.00 | 0.00 | 43 | 1007.9 |
| 20260505010012 | 68 | 188 | 5.0 | 14.0 | 0.00 | 0.00 | 0.00 | 43 | 1007.9 |
| 20260505005506 | 68 | 206 | 4.0 | 11.0 | 0.00 | 0.00 | 0.00 | 43 | 1007.9 |
| 20260505005007 | 67 | 184 | 4.0 | 10.0 | 0.00 | 0.00 | 0.00 | 43 | 1007.8 |
| 20260505004537 | 67 | 175 | 3.0 | 10.0 | 0.00 | 0.00 | 0.00 | 44 | 1007.8 |
| 20260505004007 | 67 | 192 | 2.0 | 7.0 | 0.00 | 0.00 | 0.00 | 44 | 1007.7 |
| 20260505003511 | 67 | 137 | 3.0 | 7.0 | 0.00 | 0.00 | 0.00 | 43 | 1007.7 |
| 20260505003024 | 67 | 184 | 2.0 | 7.0 | 0.00 | 0.00 | 0.00 | 43 | 1007.6 |
| 20260505002509 | 67 | 173 | 2.0 | 6.0 | 0.00 | 0.00 | 0.00 | 44 | 1007.5 |
| 20260505002012 | 68 | 143 | 3.0 | 5.0 | 0.00 | 0.00 | 0.00 | 43 | 1007.5 |
| 20260505001528 | 68 | 144 | 1.0 | 5.0 | 0.00 | 0.00 | 0.00 | 42 | 1007.5 |
| 20260505001014 | 68 | 108 | 2.0 | 7.0 | 0.00 | 0.00 | 0.00 | 42 | 1007.4 |
| 20260505000513 | 69 | 190 | 3.0 | 7.0 | 0.00 | 0.00 | 0.00 | 41 | 1007.3 |
| 20260505000039 | 69 | 144 | 2.0 | 6.0 | 0.00 | 0.00 | 0.00 | 42 | 1007.4 |
| 20260504235510 | 69 | 153 | 2.0 | 7.0 | 0.00 | 0.00 | 0.00 | 40 | 1007.3 |
| 20260504235004 | 69 | 143 | 3.0 | 10.0 | 0.00 | 0.00 | 0.00 | 40 | 1007.3 |
| 20260504234517 | 69 | 173 | 4.0 | 9.0 | 0.00 | 0.00 | 0.00 | 40 | 1007.1 |
| 20260504234006 | 69 | 148 | 1.0 | 7.0 | 0.00 | 0.00 | 0.00 | 39 | 1007.0 |
| 20260504233508 | 69 | 127 | 2.0 | 6.0 | 0.00 | 0.00 | 0.00 | 40 | 1006.9 |
| 20260504233022 | 70 | 197 | 0.0 | 5.0 | 0.00 | 0.00 | 0.00 | 40 | 1006.9 |
| 20260504232507 | 70 | 118 | 1.0 | 6.0 | 0.00 | 0.00 | 0.00 | 39 | 1006.9 |
| 20260504232010 | 71 | 183 | 2.0 | 7.0 | 0.00 | 0.00 | 0.00 | 38 | 1006.9 |
| 20260504231504 | 72 | 163 | 2.0 | 10.0 | 0.00 | 0.00 | 0.00 | 35 | 1006.9 |
| 20260504231002 | 73 | 183 | 5.0 | 10.0 | 0.00 | 0.00 | 0.00 | 33 | 1006.8 |
| 20260504230503 | 73 | 195 | 4.0 | 12.0 | 0.00 | 0.00 | 0.00 | 32 | 1006.7 |
| 20260504230008 | 73 | 192 | 6.0 | 18.0 | 0.00 | 0.00 | 0.00 | 32 | 1006.9 |